Torna al catalogo

STARLINK-36884

AttivoComunicazioniSSO
NORAD 68026·PAYLOAD·🇺🇸 United States

Lanciato Mar 1, 2026 da Vandenberg Space Force Base

Loading…

Prossimi Passaggi (prossime 24 ore)

TLE

AggiornatoSource: CelesTrak SupGP

Epoca: Sep 15, 2026, 02:58 UTC

1 68026C 26040M   26258.12409722  .00036755  00000+0  11413-2 0  2589
2 68026  97.2857 205.5213 0001870  97.7194 237.2888 15.33411070    17

Traccia STARLINK-36884 in tempo reale con AllMySat

Download on the App Store